Showing default

EXPLORER 27, 1328

Orbit data source: Space-Track

EXPLORER 27, 1328 is a payload satellite owned by GSFC (US) in LEO that was launched on Thu, 29 Apr 1965 UTC via an SCOUT X-4 launch vehicle from the Wallops Island (WLPIS). Payload-class satellites include a variety of spacecraft equipped with specific instruments for various scientific and technological missions. These include communications satellites like Starlink; space stations such as the ISS; scientific satellites like the Hubble; Earth observation satellites from companies like Planet Labs, Umbra, and HawkEye 360; GPS; miniature CubeSats for education and research; and military/defense satellites.

Loading next visibility...
Identifier
1328, 1965-032A
Orbit
LEO
Country
Flag of USUS
Related business
Manufacturer
APL
Mission
Civil Science
Bus & Motor
TRANSIT 5, Unknown motor
Mass
55 kg wet, 55 kg dry
Launch date (UTC)
1965-04-29 (60 years ago)
Launch vehicle
SCOUT X-4
Launch site
Wallops Island (WLPIS)
Object type
Payload
Rocket body
Debris
Shape & HBR
Oct Cyl + 4 Pan + 4 Rod, 2.3 m
Radar Cross Section
2.996 m², Large (>1 m²)

Expand to show TLE details & history
Last TLE update: 10 hours ago

TLE from 10 hours ago
0 EXPLORER 27
1 01328U 65032A   25260.87769818 -.00000080  00000-0  39782-5 0  9992
2 01328  41.1833 102.4247 0244112 329.6968  28.9864 13.38897328951838
Epoch: 2025-09-17T21:03Z
TLE epoch observation values (Epoch: 2025-09-17T21:03:53.122Z)
Latitude
-0.00004°
Longitude
149.40598°
Altitude
954.136 km
Speed
7.454 km/s
True Right ascension
06h 49m 41s
True Declination
0° 00' 00"
Sunlit
Object was in daylight at epoch
Visualization orbit readout
Latitude
Unknown
Longitude
Unknown
Altitude
Unknown
Speed
Unknown
Apparent Right ascension
Unknown
Apparent Declination
Unknown
Sunlit
N/A
Visualization observer readout
Local Sidereal Time
23:54:56
Azimuth
Unknown
Elevation
Unknown
Doppler factor
Unknown
Orbital elements
Apogee altitude
1,298.379 km
Perigee altitude
932.524 km
Semi-major axis
7,493.589 km
Eccentricity
0.02441
Inclination
41.1833°
RAAN
102.4247°
Arg. of periapsis
329.6968°
True anomaly
30.37898°
Mean anomaly
28.9864°
Eccentric anomaly
29.67893°
Mean motion
3.34586 °/min
Orbital period
107.6 mins
BSTAR
0.0000039782
Loading maneuver chart data...
Computing Atmospheric mass density...
Loading historical data...
Loading historical data...
Loading historical data...
Loading historical data...
Loading historical data...
Loading historical data...
Loading historical data...
Other satellites on launch #32 in the year 1965 (1965-04-29 UTC)

Documentation

Showing up to 5 results
|